| time (UTC) | temp F | wind direction | speed MPH | gust MPH | rain 1hr in | rain 24hr in | rain mn in | humidity % | barometer mb |
| 20260509160903 | 59 | 0 | 0.0 | 2.0 | 0.00 | 0.01 | 0.01 | 77 | 1011.5 |
| 20260509160003 | 60 | 0 | 0.0 | 1.0 | 0.00 | 0.01 | 0.01 | 76 | 1011.7 |
| 20260509155403 | 60 | 0 | 0.0 | 1.0 | 0.00 | 0.01 | 0.01 | 78 | 1011.7 |
| 20260509154503 | 59 | 117 | 1.0 | 2.0 | 0.00 | 0.01 | 0.01 | 78 | 1011.9 |
| 20260509153603 | 60 | 118 | 1.0 | 2.0 | 0.00 | 0.01 | 0.01 | 76 | 1011.7 |
| 20260509152919 | 60 | 0 | 0.0 | 1.0 | 0.00 | 0.01 | 0.01 | 78 | 1011.7 |
| 20260509151803 | 59 | 0 | 0.0 | 1.0 | 0.00 | 0.01 | 0.01 | 80 | 1011.7 |
| 20260509150903 | 58 | 0 | 0.0 | 1.0 | 0.00 | 0.01 | 0.01 | 83 | 1011.6 |
| 20260509150003 | 58 | 0 | 0.0 | 1.0 | 0.00 | 0.01 | 0.01 | 83 | 1011.7 |
| 20260509145403 | 58 | 0 | 0.0 | 1.0 | 0.00 | 0.01 | 0.01 | 85 | 1011.6 |
| 20260509144503 | 57 | 0 | 0.0 | 1.0 | 0.00 | 0.01 | 0.01 | 87 | 1011.9 |
| 20260509143603 | 56 | 0 | 0.0 | 1.0 | 0.00 | 0.01 | 0.01 | 90 | 1011.8 |
| 20260509142703 | 56 | 0 | 0.0 | 1.0 | 0.00 | 0.01 | 0.01 | 90 | 1012.0 |
| 20260509141803 | 55 | 0 | 0.0 | 1.0 | 0.00 | 0.01 | 0.01 | 92 | 1011.9 |
| 20260509140903 | 54 | 0 | 0.0 | 1.0 | 0.00 | 0.01 | 0.01 | 92 | 1011.9 |
| 20260509140221 | 53 | 0 | 0.0 | 1.0 | 0.00 | 0.01 | 0.01 | 91 | 1012.0 |
| 20260509135618 | 53 | 0 | 0.0 | 0.0 | 0.00 | 0.01 | 0.01 | 91 | 1012.0 |
| 20260509134503 | 52 | 0 | 0.0 | 1.0 | 0.00 | 0.01 | 0.01 | 90 | 1011.9 |
| 20260509133603 | 52 | 0 | 0.0 | 1.0 | 0.00 | 0.01 | 0.01 | 91 | 1011.6 |
| 20260509132703 | 52 | 0 | 0.0 | 1.0 | 0.00 | 0.01 | 0.01 | 91 | 1011.6 |
| 20260509131803 | 52 | 0 | 0.0 | 1.0 | 0.00 | 0.01 | 0.01 | 91 | 1011.7 |
| 20260509130903 | 52 | 0 | 0.0 | 1.0 | 0.01 | 0.01 | 0.01 | 91 | 1011.8 |
| 20260509130217 | 52 | 0 | 0.0 | 1.0 | 0.01 | 0.01 | 0.01 | 91 | 1011.8 |
| 20260509125403 | 52 | 0 | 0.0 | 1.0 | 0.01 | 0.01 | 0.01 | 90 | 1011.9 |
| 20260509124503 | 51 | 0 | 0.0 | 1.0 | 0.01 | 0.01 | 0.01 | 89 | 1012.1 |
| 20260509123603 | 51 | 0 | 0.0 | 2.0 | 0.01 | 0.01 | 0.01 | 89 | 1011.8 |
| 20260509122703 | 51 | 0 | 0.0 | 2.0 | 0.01 | 0.01 | 0.01 | 87 | 1011.8 |
| 20260509121803 | 51 | 0 | 0.0 | 2.0 | 0.01 | 0.01 | 0.01 | 87 | 1011.8 |
| 20260509120903 | 51 | 0 | 0.0 | 1.0 | 0.00 | 0.00 | 0.00 | 87 | 1011.8 |
| 20260509120003 | 53 | 0 | 0.0 | 1.0 | 0.00 | 0.00 | 0.00 | 70 | 1011.9 |
| 20260509115403 | 53 | 0 | 0.0 | 1.0 | 0.00 | 0.00 | 0.00 | 70 | 1011.8 |
| 20260509114503 | 53 | 0 | 0.0 | 1.0 | 0.00 | 0.00 | 0.00 | 70 | 1011.8 |
| 20260509113603 | 53 | 0 | 0.0 | 1.0 | 0.00 | 0.00 | 0.00 | 70 | 1011.9 |
| 20260509112917 | 53 | 0 | 0.0 | 1.0 | 0.00 | 0.00 | 0.00 | 70 | 1012.1 |
| 20260509111803 | 53 | 0 | 0.0 | 1.0 | 0.00 | 0.00 | 0.00 | 70 | 1011.9 |
| 20260509110903 | 53 | 0 | 0.0 | 1.0 | 0.00 | 0.00 | 0.00 | 70 | 1011.9 |
| 20260509110003 | 53 | 0 | 0.0 | 1.0 | 0.00 | 0.00 | 0.00 | 70 | 1011.4 |
| 20260509105403 | 53 | 0 | 0.0 | 1.0 | 0.00 | 0.00 | 0.00 | 70 | 1011.4 |
| 20260509104503 | 53 | 0 | 0.0 | 1.0 | 0.00 | 0.00 | 0.00 | 70 | 1011.5 |
| 20260509103603 | 53 | 0 | 0.0 | 1.0 | 0.00 | 0.00 | 0.00 | 70 | 1011.3 |
| 20260509102703 | 53 | 0 | 0.0 | 1.0 | 0.00 | 0.00 | 0.00 | 70 | 1011.4 |
| 20260509101803 | 53 | 0 | 0.0 | 1.0 | 0.00 | 0.00 | 0.00 | 72 | 1011.5 |
| 20260509100903 | 54 | 0 | 0.0 | 1.0 | 0.00 | 0.00 | 0.00 | 70 | 1011.2 |
| 20260509100004 | 54 | 0 | 0.0 | 1.0 | 0.00 | 0.00 | 0.00 | 69 | 1010.9 |
| 20260509095621 | 54 | 0 | 0.0 | 1.0 | 0.00 | 0.00 | 0.00 | 67 | 1010.9 |
| 20260509094503 | 54 | 0 | 0.0 | 0.0 | 0.00 | 0.00 | 0.00 | 65 | 1010.9 |
| 20260509093821 | 54 | 0 | 0.0 | 0.0 | 0.00 | 0.00 | 0.00 | 63 | 1011.0 |
| 20260509092918 | 54 | 0 | 0.0 | 0.0 | 0.00 | 0.00 | 0.00 | 64 | 1011.0 |
| 20260509091803 | 55 | 0 | 0.0 | 0.0 | 0.00 | 0.00 | 0.00 | 64 | 1010.8 |
| 20260509091118 | 55 | 0 | 0.0 | 0.0 | 0.00 | 0.00 | 0.00 | 64 | 1010.9 |
| 20260509090220 | 55 | 0 | 0.0 | 0.0 | 0.00 | 0.00 | 0.00 | 63 | 1010.7 |
| 20260509085403 | 55 | 0 | 0.0 | 0.0 | 0.00 | 0.00 | 0.00 | 63 | 1010.8 |
| 20260509084503 | 55 | 0 | 0.0 | 0.0 | 0.00 | 0.00 | 0.00 | 64 | 1010.7 |
| 20260509083603 | 55 | 0 | 0.0 | 0.0 | 0.00 | 0.00 | 0.00 | 63 | 1010.9 |
| 20260509082703 | 55 | 0 | 0.0 | 0.0 | 0.00 | 0.00 | 0.00 | 64 | 1010.9 |
| 20260509081803 | 55 | 0 | 0.0 | 0.0 | 0.00 | 0.00 | 0.00 | 64 | 1010.9 |
| 20260509080903 | 54 | 0 | 0.0 | 0.0 | 0.00 | 0.00 | 0.00 | 65 | 1011.0 |
| 20260509080003 | 54 | 0 | 0.0 | 0.0 | 0.00 | 0.00 | 0.00 | 66 | 1011.0 |
| 20260509075403 | 55 | 0 | 0.0 | 0.0 | 0.00 | 0.00 | 0.00 | 67 | 1011.0 |
| 20260509074503 | 55 | 0 | 0.0 | 0.0 | 0.00 | 0.00 | 0.00 | 64 | 1011.1 |
| 20260509073603 | 55 | 0 | 0.0 | 0.0 | 0.00 | 0.00 | 0.00 | 63 | 1011.1 |
| 20260509072703 | 55 | 0 | 0.0 | 1.0 | 0.00 | 0.00 | 0.00 | 63 | 1011.0 |
| 20260509071803 | 55 | 0 | 0.0 | 1.0 | 0.00 | 0.00 | 0.00 | 64 | 1011.1 |
| 20260509071119 | 55 | 0 | 0.0 | 1.0 | 0.00 | 0.00 | 0.00 | 65 | 1011.1 |
| 20260509070003 | 55 | 236 | 1.0 | 2.0 | 0.00 | 0.00 | 0.00 | 65 | 1011.2 |
| 20260509065403 | 55 | 0 | 0.0 | 1.0 | 0.00 | 0.00 | 0.00 | 65 | 1011.3 |
| 20260509064503 | 54 | 0 | 0.0 | 1.0 | 0.00 | 0.00 | 0.00 | 65 | 1011.2 |
| 20260509063603 | 55 | 0 | 0.0 | 1.0 | 0.00 | 0.00 | 0.00 | 65 | 1011.3 |
| 20260509062920 | 55 | 235 | 1.0 | 2.0 | 0.00 | 0.00 | 0.00 | 64 | 1011.5 |
| 20260509061803 | 56 | 230 | 1.0 | 2.0 | 0.00 | 0.00 | 0.00 | 62 | 1011.5 |
| 20260509060903 | 56 | 225 | 1.0 | 2.0 | 0.00 | 0.00 | 0.00 | 62 | 1011.7 |
| 20260509060004 | 56 | 223 | 1.0 | 2.0 | 0.00 | 0.00 | 0.00 | 61 | 1011.6 |
| 20260509055403 | 56 | 226 | 1.0 | 2.0 | 0.00 | 0.00 | 0.00 | 60 | 1011.6 |
| 20260509054503 | 56 | 0 | 0.0 | 0.0 | 0.00 | 0.00 | 0.00 | 60 | 1011.6 |
| 20260509053603 | 56 | 0 | 0.0 | 0.0 | 0.00 | 0.00 | 0.00 | 60 | 1011.8 |
| 20260509052921 | 57 | 0 | 0.0 | 0.0 | 0.00 | 0.00 | 0.00 | 62 | 1011.9 |
| 20260509051803 | 57 | 0 | 0.0 | 0.0 | 0.00 | 0.00 | 0.00 | 58 | 1011.8 |
| 20260509050903 | 57 | 0 | 0.0 | 0.0 | 0.00 | 0.00 | 0.00 | 58 | 1011.9 |
| 20260509050217 | 56 | 0 | 0.0 | 0.0 | 0.00 | 0.00 | 0.00 | 60 | 1011.8 |
| 20260509045619 | 57 | 0 | 0.0 | 0.0 | 0.00 | 0.00 | 0.00 | 60 | 1011.8 |
| 20260509044721 | 57 | 0 | 0.0 | 0.0 | 0.00 | 0.00 | 0.00 | 59 | 1011.8 |
| 20260509043603 | 58 | 0 | 0.0 | 0.0 | 0.00 | 0.00 | 0.00 | 56 | 1011.9 |
| 20260509042921 | 58 | 0 | 0.0 | 1.0 | 0.00 | 0.00 | 0.00 | 54 | 1011.9 |
| 20260509042018 | 59 | 247 | 1.0 | 2.0 | 0.00 | 0.00 | 0.00 | 54 | 1011.8 |
| 20260509041121 | 59 | 268 | 1.0 | 1.0 | 0.00 | 0.00 | 0.00 | 52 | 1011.7 |
| 20260509040005 | 58 | 0 | 0.0 | 1.0 | 0.00 | 0.00 | 0.00 | 51 | 1011.7 |
| 20260509035403 | 59 | 0 | 0.0 | 1.0 | 0.00 | 0.00 | 0.00 | 51 | 1011.9 |
| 20260509034503 | 58 | 0 | 0.0 | 1.0 | 0.00 | 0.00 | 0.00 | 52 | 1012.0 |
| 20260509033603 | 58 | 0 | 0.0 | 0.0 | 0.00 | 0.00 | 0.00 | 52 | 1012.1 |
| 20260509032703 | 59 | 0 | 0.0 | 0.0 | 0.00 | 0.00 | 0.00 | 54 | 1012.5 |
| 20260509031803 | 59 | 0 | 0.0 | 1.0 | 0.00 | 0.00 | 0.00 | 51 | 1012.1 |
| 20260509030903 | 60 | 0 | 0.0 | 0.0 | 0.00 | 0.00 | 0.00 | 50 | 1012.1 |
| 20260509030003 | 60 | 0 | 0.0 | 1.0 | 0.00 | 0.00 | 0.00 | 49 | 1012.1 |
| 20260509025403 | 60 | 299 | 1.0 | 1.0 | 0.00 | 0.00 | 0.00 | 52 | 1012.3 |
| 20260509024504 | 60 | 0 | 0.0 | 1.0 | 0.00 | 0.00 | 0.00 | 49 | 1012.3 |
| 20260509023603 | 60 | 309 | 1.0 | 1.0 | 0.00 | 0.00 | 0.00 | 54 | 1012.3 |
| 20260509022703 | 60 | 0 | 0.0 | 1.0 | 0.00 | 0.00 | 0.00 | 53 | 1012.3 |
| 20260509022020 | 60 | 0 | 0.0 | 1.0 | 0.00 | 0.00 | 0.00 | 52 | 1012.3 |
| 20260509020903 | 61 | 0 | 0.0 | 2.0 | 0.00 | 0.00 | 0.00 | 51 | 1012.5 |
| 20260509020003 | 61 | 0 | 0.0 | 0.0 | 0.00 | 0.00 | 0.00 | 48 | 1012.4 |
| 20260509015403 | 62 | 0 | 0.0 | 0.0 | 0.00 | 0.00 | 0.00 | 50 | 1012.4 |
| 20260509014503 | 63 | 0 | 0.0 | 1.0 | 0.00 | 0.00 | 0.00 | 48 | 1012.3 |
| 20260509013603 | 63 | 126 | 1.0 | 2.0 | 0.00 | 0.00 | 0.00 | 45 | 1012.2 |
| 20260509012703 | 63 | 128 | 2.0 | 3.0 | 0.00 | 0.00 | 0.00 | 44 | 1012.2 |
| 20260509011803 | 63 | 125 | 3.0 | 4.0 | 0.00 | 0.00 | 0.00 | 45 | 1012.2 |
| 20260509010903 | 63 | 128 | 3.0 | 4.0 | 0.00 | 0.00 | 0.00 | 44 | 1012.2 |
| 20260509010003 | 63 | 126 | 3.0 | 4.0 | 0.00 | 0.00 | 0.00 | 45 | 1012.2 |
| 20260509005403 | 63 | 115 | 2.0 | 3.0 | 0.00 | 0.00 | 0.00 | 45 | 1012.1 |
| 20260509004503 | 63 | 107 | 2.0 | 3.0 | 0.00 | 0.00 | 0.00 | 44 | 1012.2 |
| 20260509003603 | 63 | 108 | 2.0 | 3.0 | 0.00 | 0.00 | 0.00 | 44 | 1012.1 |
| 20260509002704 | 62 | 0 | 0.0 | 2.0 | 0.00 | 0.00 | 0.00 | 46 | 1011.9 |
| 20260509001803 | 63 | 0 | 0.0 | 0.0 | 0.00 | 0.00 | 0.00 | 48 | 1011.9 |
| 20260509000903 | 64 | 0 | 0.0 | 0.0 | 0.00 | 0.00 | 0.00 | 45 | 1011.7 |
| 20260509000003 | 64 | 0 | 0.0 | 0.0 | 0.00 | 0.00 | 0.00 | 43 | 1011.7 |
| 20260508235403 | 64 | 0 | 0.0 | 0.0 | 0.00 | 0.00 | 0.00 | 44 | 1011.7 |
| 20260508234720 | 64 | 0 | 0.0 | 0.0 | 0.00 | 0.00 | 0.00 | 43 | 1011.5 |
| 20260508233603 | 65 | 0 | 0.0 | 0.0 | 0.00 | 0.00 | 0.00 | 42 | 1011.6 |
| 20260508232703 | 65 | 0 | 0.0 | 1.0 | 0.00 | 0.00 | 0.00 | 42 | 1011.6 |
| 20260508231803 | 65 | 0 | 0.0 | 2.0 | 0.00 | 0.00 | 0.00 | 42 | 1011.5 |
| 20260508230004 | 66 | 0 | 0.0 | 1.0 | 0.00 | 0.00 | 0.00 | 41 | 1011.5 |
| 20260508225403 | 66 | 0 | 0.0 | 0.0 | 0.00 | 0.00 | 0.00 | 41 | 1011.4 |
| 20260508224503 | 66 | 0 | 0.0 | 1.0 | 0.00 | 0.00 | 0.00 | 41 | 1011.5 |
| 20260508223603 | 67 | 0 | 0.0 | 2.0 | 0.00 | 0.00 | 0.00 | 40 | 1011.5 |
| 20260508222920 | 67 | 0 | 0.0 | 1.0 | 0.00 | 0.00 | 0.00 | 40 | 1011.5 |
| 20260508221803 | 67 | 0 | 0.0 | 3.0 | 0.00 | 0.00 | 0.00 | 39 | 1011.6 |
| 20260508220903 | 67 | 0 | 0.0 | 2.0 | 0.00 | 0.00 | 0.00 | 40 | 1011.6 |
| 20260508220217 | 67 | 0 | 0.0 | 2.0 | 0.00 | 0.00 | 0.00 | 39 | 1011.7 |
| 20260508215403 | 68 | 0 | 0.0 | 3.0 | 0.00 | 0.00 | 0.00 | 38 | 1011.6 |
| 20260508214503 | 68 | 111 | 1.0 | 3.0 | 0.00 | 0.00 | 0.00 | 39 | 1011.6 |
| 20260508213603 | 67 | 354 | 1.0 | 3.0 | 0.00 | 0.00 | 0.00 | 38 | 1011.7 |
| 20260508212703 | 67 | 60 | 1.0 | 3.0 | 0.00 | 0.00 | 0.00 | 38 | 1011.8 |
| 20260508211803 | 67 | 0 | 0.0 | 3.0 | 0.00 | 0.00 | 0.00 | 39 | 1011.9 |
| 20260508211120 | 67 | 0 | 0.0 | 2.0 | 0.00 | 0.00 | 0.00 | 39 | 1011.9 |
| 20260508210003 | 68 | 38 | 1.0 | 2.0 | 0.00 | 0.00 | 0.00 | 38 | 1012.1 |
| 20260508205403 | 68 | 0 | 0.0 | 2.0 | 0.00 | 0.00 | 0.00 | 36 | 1012.0 |
| 20260508204503 | 68 | 0 | 0.0 | 2.0 | 0.00 | 0.00 | 0.00 | 36 | 1012.0 |
| 20260508203819 | 68 | 323 | 1.0 | 3.0 | 0.00 | 0.00 | 0.00 | 37 | 1012.2 |
| 20260508202703 | 67 | 340 | 1.0 | 4.0 | 0.00 | 0.00 | 0.00 | 36 | 1012.2 |
| 20260508201803 | 67 | 0 | 0.0 | 2.0 | 0.00 | 0.00 | 0.00 | 37 | 1012.3 |
| 20260508200903 | 67 | 107 | 1.0 | 4.0 | 0.00 | 0.00 | 0.00 | 35 | 1012.3 |
| 20260508200003 | 68 | 275 | 1.0 | 4.0 | 0.00 | 0.00 | 0.00 | 33 | 1012.4 |
| 20260508195403 | 69 | 271 | 1.0 | 4.0 | 0.00 | 0.00 | 0.00 | 32 | 1012.5 |
| 20260508194503 | 70 | 273 | 1.0 | 4.0 | 0.00 | 0.00 | 0.00 | 32 | 1012.5 |
| 20260508193603 | 71 | 272 | 2.0 | 6.0 | 0.00 | 0.00 | 0.00 | 31 | 1012.6 |
| 20260508192703 | 72 | 284 | 1.0 | 5.0 | 0.00 | 0.00 | 0.00 | 30 | 1012.5 |
| 20260508191803 | 70 | 276 | 2.0 | 5.0 | 0.00 | 0.00 | 0.00 | 32 | 1012.5 |
| 20260508190903 | 69 | 256 | 1.0 | 4.0 | 0.00 | 0.00 | 0.00 | 34 | 1012.8 |
| 20260508190003 | 68 | 258 | 2.0 | 4.0 | 0.00 | 0.00 | 0.00 | 35 | 1013.0 |
| 20260508185403 | 68 | 279 | 1.0 | 4.0 | 0.00 | 0.00 | 0.00 | 35 | 1013.1 |
| 20260508184503 | 68 | 239 | 1.0 | 4.0 | 0.00 | 0.00 | 0.00 | 33 | 1013.2 |
| 20260508183603 | 68 | 301 | 2.0 | 5.0 | 0.00 | 0.00 | 0.00 | 31 | 1013.3 |
| 20260508182703 | 70 | 265 | 1.0 | 6.0 | 0.00 | 0.00 | 0.00 | 30 | 1013.2 |
| 20260508181803 | 70 | 250 | 2.0 | 6.0 | 0.00 | 0.00 | 0.00 | 31 | 1013.5 |
| 20260508180903 | 70 | 223 | 2.0 | 6.0 | 0.00 | 0.00 | 0.00 | 32 | 1013.2 |
| 20260508180003 | 70 | 235 | 2.0 | 5.0 | 0.00 | 0.00 | 0.00 | 31 | 1013.5 |
| 20260508175403 | 70 | 240 | 2.0 | 5.0 | 0.00 | 0.00 | 0.00 | 29 | 1013.5 |
| 20260508174503 | 69 | 241 | 2.0 | 6.0 | 0.00 | 0.00 | 0.00 | 32 | 1013.7 |
| 20260508173603 | 70 | 241 | 2.0 | 5.0 | 0.00 | 0.00 | 0.00 | 30 | 1013.6 |
| 20260508172703 | 72 | 225 | 1.0 | 7.0 | 0.00 | 0.00 | 0.00 | 31 | 1013.5 |
| 20260508171803 | 71 | 251 | 2.0 | 4.0 | 0.00 | 0.00 | 0.00 | 32 | 1013.6 |
| 20260508170903 | 70 | 257 | 2.0 | 4.0 | 0.00 | 0.00 | 0.00 | 33 | 1014.0 |
| 20260508170003 | 68 | 235 | 3.0 | 6.0 | 0.00 | 0.00 | 0.00 | 34 | 1013.9 |
| 20260508165403 | 67 | 234 | 2.0 | 6.0 | 0.00 | 0.00 | 0.00 | 34 | 1014.0 |
| 20260508164504 | 67 | 226 | 2.0 | 5.0 | 0.00 | 0.00 | 0.00 | 36 | 1014.2 |
| 20260508163603 | 68 | 240 | 2.0 | 4.0 | 0.00 | 0.00 | 0.00 | 34 | 1014.2 |
| 20260508162703 | 68 | 244 | 2.0 | 6.0 | 0.00 | 0.00 | 0.00 | 33 | 1014.5 |